This is the latest recevied weather packets stored in our database for station/object HK4DAP-11. If no packets are shown the sender has not sent any weather packets the latest 10 day(s).
| Time | Temp. | Humidity | Pressure | Rain* | Wind** | Luminosity | Snow |
|---|---|---|---|---|---|---|---|
| 1787787043 | 26.11° C | 61% | 847.6 hPa | - | - | - | - |
| 1787786743 | 26.11° C | 61% | 847.5 hPa | - | - | - | - |
| 1787786443 | 26.11° C | 60% | 847.4 hPa | - | - | - | - |
| 1787786143 | 26.11° C | 60% | 847.4 hPa | - | - | - | - |
| 1787785843 | 26.11° C | 59% | 847.4 hPa | - | - | - | - |
| 1787785543 | 26.11° C | 58% | 847.3 hPa | - | - | - | - |
| 1787785243 | 26.11° C | 55% | 847.2 hPa | - | - | - | - |
| 1787784942 | 26.11° C | 54% | 847.1 hPa | - | - | - | - |
| 1787784642 | 26.11° C | 57% | 847.2 hPa | - | - | - | - |
| 1787784342 | 26.11° C | 55% | 846.9 hPa | - | - | - | - |
| 1787784042 | 26.11° C | 52% | 846.8 hPa | - | - | - | - |
| 1787783742 | 26.11° C | 52% | 846.7 hPa | - | - | - | - |
| 1787783442 | 26.11° C | 53% | 846.4 hPa | - | - | - | - |
| 1787783142 | 25.56° C | 60% | 846.4 hPa | - | - | - | - |
| 1787782841 | 25.56° C | 60% | 846.3 hPa | - | - | - | - |
| 1787782542 | 25.56° C | 59% | 846.3 hPa | - | - | - | - |
| 1787782243 | 26.11° C | 59% | 846.3 hPa | - | - | - | - |
| 1787781941 | 26.11° C | 59% | 846.4 hPa | - | - | - | - |
| 1787781641 | 26.11° C | 59% | 846.4 hPa | - | - | - | - |
| 1787781341 | 26.11° C | 59% | 846.4 hPa | - | - | - | - |
| 1787781041 | 26.11° C | 59% | 846.4 hPa | - | - | - | - |
| 1787780741 | 25.56° C | 59% | 846.1 hPa | - | - | - | - |
| 1787780440 | 25.56° C | 59% | 846 hPa | - | - | - | - |
| 1787780140 | 26.11° C | 58% | 846.1 hPa | - | - | - | - |
| 1787779840 | 26.11° C | 59% | 846.1 hPa | - | - | - | - |
* Rain since midnight (hover to see other rain measurements)
** Current wind speed in m/s (hover to see current wind gust speed)